Flag for Brazil Weather past 2 weeks in Salvador, Bahia, Brazil

Now
75 °F

Scattered showers. Partly sunny.


Feels Like: 75 °F
Forecast: N/A
Wind: 7 mph from South

Location: Salvador Aeroporto

Current Time: Jul 6, 2015 at 5:44:41 PM

Latest Report: Jul 6, 2015 at 5:00 PM


Visibility: N/A

Pressure: 30.01 "Hg

Humidity: 83%

Dew point: 70 °F

Location of SalvadorLocation

Historic Weather in Salvador — Graph

°F

Salvador temperature yesterday

Maximum temperature yesterday: 82 °F (at 10:00 AM)
Minimum temperature yesterday: 73 °F (at 1:00 AM)
Average temperature yesterday: 78 °F

Past Weeks' High & Low Weather Summary

 TemperatureHumidityPressure
High82 °F (Jun 22, 12:00 PM)100% (Jun 25, 1:00 PM)30.24 "Hg (Jun 25, 1:00 PM)
Low36 °F (Jun 28, 3:00 AM)55% (Jul 2, 11:00 AM)29.95 "Hg (Jul 4, 3:00 PM)
Average76 °F76%30.08 "Hg
* Reported Jun 21 4:00 PM — Jul 6 4:00 PM, Salvador, Weather by CustomWeather, © 2015

Note: Actual official high and low records may vary slightly from our data, if they occured in-between our weather recording intervals... More about our weather records

Advertising

Salvador weather history for previous 24 hours

 ConditionsComfort  
Time TempWeatherWind HumidityBarometerVisibility
4:00 PM
Mon, Jul 6
81 °FScattered clouds.10 mph70%29.98 "HgN/A
3:00 PM81 °FScattered clouds.9 mph66%29.98 "HgN/A
2:00 PM82 °FScattered clouds.10 mph66%30.01 "HgN/A
1:00 PM82 °FScattered clouds.10 mph62%30.01 "HgN/A
12:00 PM82 °FScattered clouds.10 mph66%30.04 "HgN/A
11:00 AM82 °FScattered clouds.12 mph66%30.04 "HgN/A
10:00 AM82 °FScattered clouds.12 mph66%30.07 "HgN/A
9:00 AM81 °FPartly sunny.12 mph70%30.07 "HgN/A
8:00 AM81 °FScattered clouds.8 mph66%30.04 "HgN/A
7:00 AM79 °FScattered clouds.8 mph70%30.01 "HgN/A
6:00 AM77 °FScattered clouds.8 mph74%30.01 "HgN/A
5:00 AM77 °FPassing clouds.8 mph74%29.98 "HgN/A
4:00 AM77 °FPassing clouds.7 mph74%29.98 "HgN/A
3:00 AM77 °FPassing clouds.6 mph69%29.98 "HgN/A
2:00 AM77 °FPassing clouds.7 mph79%30.01 "HgN/A
1:00 AM77 °FPassing clouds.9 mph79%30.01 "HgN/A
12:00 AM79 °FPartly cloudy.8 mph74%30.01 "HgN/A
11:00 PM
Sun, Jul 5
77 °FScattered showers. Partly cloudy.8 mph79%N/AN/A
10:00 PM77 °FScattered showers. Partly cloudy.9 mph83%N/A6 mi
9:00 PM79 °FPassing clouds.7 mph74%30.01 "HgN/A
8:00 PM79 °FPassing clouds.8 mph79%30.01 "HgN/A
7:00 PM79 °FPassing clouds.9 mph79%29.98 "HgN/A
6:00 PM79 °FPassing clouds.9 mph79%29.98 "HgN/A
5:00 PM81 °FScattered clouds.10 mph74%29.98 "HgN/A
Weather by CustomWeather, © 2015

See weather overviewHow to use our weather pages